Regional Weather Roundup
Issued by NWS Little Rock, AR

Home | Current Version | Previous Version | Text Only | Print | Product List | Glossary Off
Versions: 1 2 3 4 5 6 7 8 9 10 11 12 13 14 15 16 17 18 19 20 21 22 23 24 25 26 27 28 29 30 31 32 33 34 35 36 37 38 39 40 41 42 43 44 45 46 47 48 49 50

000
ASUS44 KLZK 211205
RWRLZK

WEATHER ROUNDUP FOR ARKANSAS
NATIONAL WEATHER SERVICE LITTLE ROCK AR
600 AM CST SAT JAN 21 2017

NOTE: "FAIR" INDICATES FEW OR NO CLOUDS BELOW 12,000 FEET WITH NO
SIGNIFICANT WEATHER AND/OR OBSTRUCTIONS TO VISIBILITY.

ARZ001-003-010-029-211300-
NORTHWEST ARKANSAS

CITY           SKY/WX    TMP DP  RH WIND       PRES   REMARKS
FAYETTEVILLE   CLEAR     48  40  73 S3        29.57S
6HR MIN TEMP:  48; 6HR MAX TEMP:  56;

FORT SMITH     CLEAR     42  38  85 NE5       29.57S
6HR MIN TEMP:  40; 6HR MAX TEMP:  48;

HARRISON       CLOUDY    48  42  80 S10       29.58R
6HR MIN TEMP:  47; 6HR MAX TEMP:  58;

BENTONVILLE    CLEAR    N/A N/A N/A SW5       29.56S
ROGERS         CLEAR     48  37  65 S8        29.56F
6HR MIN TEMP:  48; 6HR MAX TEMP:  56;

SILOAM SPGS    CLEAR     46  36  66 SW6       29.56S
6HR MIN TEMP:  46; 6HR MAX TEMP:  55;

HIGHFILL       CLEAR     48  37  65 SW6       29.56S
6HR MIN TEMP:  44; 6HR MAX TEMP:  56;

SPRINGDALE     CLEAR     48  39  71 SW6       29.58
$$

ARZ004-005-016-211300-
NORTH CENTRAL ARKANSAS

CITY           SKY/WX    TMP DP  RH WIND       PRES   REMARKS
BATESVILLE     PTCLDY    55  48  76 S5        29.62F
6HR MIN TEMP:  52; 6HR MAX TEMP:  55;

FLIPPIN        PTCLDY    55  41  58 SW5       29.56R
6HR MIN TEMP:  46; 6HR MAX TEMP:  55;

MTN HOME       PTCLDY    52  43  71 SW6       29.57S
6HR MIN TEMP:  51; 6HR MAX TEMP:  54;

$$

ARZ040-041-211300-
WEST CENTRAL ARKANSAS

CITY           SKY/WX    TMP DP  RH WIND       PRES   REMARKS
MENA           CLEAR     45  43  93 CALM      29.60F
MOUNT IDA      CLOUDY    47  45  93 CALM      29.58F
6HR MIN TEMP:  47; 6HR MAX TEMP:  63;

$$

ARZ009-017-025-026-028-211300-
NORTHEAST ARKANSAS

CITY           SKY/WX    TMP DP  RH WIND       PRES   REMARKS
CORNING        CLOUDY    55  52  88 S10       29.62R
JONESBORO      MOCLDY    54  52  93 S8        29.63S
6HR MIN TEMP:  50; 6HR MAX TEMP:  54;

NEWPORT        MOCLDY    52  50  93 S7        29.63
6HR MIN TEMP:  51; 6HR MAX TEMP:  58;

WALNUT RIDGE   MOCLDY    54  46  76 S12       29.61S
6HR MIN TEMP:  52; 6HR MAX TEMP:  54;

BLYTHEVILLE    MOCLDY    58  53  84 S8        29.65S
6HR MIN TEMP:  56; 6HR MAX TEMP:  60;

$$

ARZ022-023-033-042-044-211300-
CENTRAL ARKANSAS

CITY           SKY/WX    TMP DP  RH WIND       PRES   REMARKS
LITTLE ROCK    MOCLDY    52  51  97 W3        29.61F
6HR MIN TEMP:  48; 6HR MAX TEMP:  53;

N LITTLE ROCK    N/A     55  52  90 SW5       29.61F
6HR MIN TEMP:  54; 6HR MAX TEMP:  57;

JACKSONVILLE   MOCLDY    55  53  91 CALM      29.60F
6HR MIN TEMP:  54; 6HR MAX TEMP:  60;

SEARCY         MOCLDY    51  51 100 CALM      29.63S
6HR MIN TEMP:  51; 6HR MAX TEMP:  60;

HOT SPRINGS    CLOUDY    48  47  96 E3        29.62S
6HR MIN TEMP:  47; 6HR MAX TEMP:  56;

RUSSELLVILLE   CLOUDY    47  44  90 CALM      29.58F
6HR MIN TEMP:  46; 6HR MAX TEMP:  56;

CLINTON        CLOUDY    39  39 100 CALM      29.63  FOG
$$

ARZ036-211300-
EAST ARKANSAS

CITY           SKY/WX    TMP DP  RH WIND       PRES   REMARKS
WEST MEMPHIS   CLOUDY    61  55  81 S13       29.65R
6HR MIN TEMP:  57; 6HR MAX TEMP:  63; 6HR PCP:  0.03;

$$

ARZ050-053-066-070-073-211300-
SOUTHWEST ARKANSAS

CITY           SKY/WX    TMP DP  RH WIND       PRES   REMARKS
ARKADELPHIA    FAIR      48  48 100 CALM      29.63S
6HR MIN TEMP:  48; 6HR MAX TEMP:  52;

CAMDEN         FOG       54  50  87 CALM      29.62R VSB 1/4
TEXARKANA      CLEAR     56  55  97 S6        29.60S
6HR MIN TEMP:  54; 6HR MAX TEMP:  60;

EL DORADO      PTCLDY    54  54 100 CALM      29.61F
6HR MIN TEMP:  53; 6HR MAX TEMP:  61;

DE QUEEN       CLEAR     41  41 100 CALM      29.59R FOG
6HR MIN TEMP:  40; 6HR MAX TEMP:  45;

$$

ARZ056-057-069-211300-
SOUTHEAST ARKANSAS

CITY           SKY/WX    TMP DP  RH WIND       PRES   REMARKS
PINE BLUFF     CLOUDY    53  51  93 S3        29.61F
6HR MIN TEMP:  53; 6HR MAX TEMP:  58;

STUTTGART      MOCLDY    55  48  76 SE7       29.62F
6HR MIN TEMP:  54; 6HR MAX TEMP:  57;

MONTICELLO     MOCLDY    57  54  89 CALM      29.62R
6HR MIN TEMP:  57; 6HR MAX TEMP:  66;


$$





USA.gov is the U.S. government's official web portal to all federal, state and local government web resources and services.